When you browse on this site, cookies collect data to enhance your experience and personalize the content and advertising you see.
Visit our Privacy Policy to learn more. By continuing to use the site, you agree to this use of cookies and data.
EN

Hourly Weather Andora

Today, 10 July, Friday

Time Temperature Precipitation Wind Pressure Humidity
00:00 +14°C° 0.3 mm 1 mps 626 mmHg 83%
01:00 +14°C° 0.2 mm 1 mps 626 mmHg 83%
02:00 +14°C° 0.2 mm 1 mps 626 mmHg 83%
03:00 +13°C° 0.2 mm 1 mps 626 mmHg 83%
04:00 +14°C° 0.3 mm 1 mps 626 mmHg 83%
05:00 +15°C° 0.3 mm 1 mps 627 mmHg 83%
06:00 +16°C° 0.3 mm 1 mps 627 mmHg 83%
07:00 +18°C° 0.2 mm 1 mps 628 mmHg 75%
08:00 +20°C° 0.2 mm 1 mps 628 mmHg 67%
09:00 +21°C° 0.2 mm 1 mps 629 mmHg 59%
10:00 +21°C° 0.4 mm 2 mps 629 mmHg 57%
11:00 +23°C° 0.4 mm 2 mps 629 mmHg 55%
12:00 +22°C° 0.4 mm 3 mps 629 mmHg 53%
13:00 +23°C° 1 mm 2 mps 629 mmHg 57%
14:00 +21°C° 1 mm 2 mps 628 mmHg 61%
15:00 +20°C° 1 mm 2 mps 628 mmHg 65%
16:00 +19°C° 0.9 mm 2 mps 627 mmHg 72%
17:00 +19°C° 0.9 mm 1 mps 627 mmHg 79%
18:00 +16°C° 0.9 mm 1 mps 626 mmHg 86%
19:00 +15°C° 0.5 mm 1 mps 626 mmHg 88%
20:00 +14°C° 0.5 mm 1 mps 626 mmHg 91%
21:00 +13°C° 0.5 mm 1 mps 626 mmHg 93%
22:00 +13°C° 0 mm 1 mps 626 mmHg 93%
23:00 +13°C° 0 mm 1 mps 626 mmHg 94%

Tomorrow, 11 July, Saturday

Time Temperature Precipitation Wind Pressure Humidity
00:00 +12°C° 0 mm 1 mps 626 mmHg 94%
01:00 +12°C° 0 mm 1 mps 626 mmHg 94%
02:00 +12°C° 0 mm 1 mps 626 mmHg 94%
03:00 +12°C° 0 mm 1 mps 626 mmHg 94%
04:00 +12°C° 0 mm 1 mps 626 mmHg 93%
05:00 +13°C° 0 mm 1 mps 627 mmHg 92%
06:00 +13°C° 0 mm 1 mps 627 mmHg 91%
07:00 +15°C° 0 mm 1 mps 628 mmHg 86%
08:00 +16°C° 0 mm 1 mps 628 mmHg 81%
09:00 +18°C° 0 mm 1 mps 629 mmHg 76%
10:00 +19°C° 0.1 mm 1 mps 629 mmHg 73%
11:00 +20°C° 0.1 mm 1 mps 629 mmHg 69%
12:00 +20°C° 0.1 mm 2 mps 629 mmHg 65%
13:00 +20°C° 0.5 mm 1 mps 629 mmHg 69%
14:00 +20°C° 0.5 mm 1 mps 629 mmHg 73%
15:00 +19°C° 0.5 mm 1 mps 629 mmHg 76%
16:00 +19°C° 0.4 mm 1 mps 628 mmHg 79%
17:00 +18°C° 0.4 mm 1 mps 628 mmHg 82%
18:00 +16°C° 0.4 mm 1 mps 628 mmHg 85%
19:00 +15°C° 0.1 mm 1 mps 628 mmHg 88%
20:00 +14°C° 0.1 mm 1 mps 628 mmHg 91%
21:00 +13°C° 0.1 mm 1 mps 628 mmHg 94%
22:00 +13°C° 0 mm 1 mps 627 mmHg 94%
23:00 +13°C° 0 mm 1 mps 627 mmHg 95%

Day after tomorrow, 12 July, Sunday

Time Temperature Precipitation Wind Pressure Humidity
00:00 +13°C° 0 mm 1 mps 627 mmHg 95%
01:00 +13°C° 0 mm 1 mps 627 mmHg 95%
02:00 +12°C° 0 mm 1 mps 626 mmHg 95%
03:00 +12°C° 0 mm 1 mps 626 mmHg 95%
04:00 +13°C° 0 mm 1 mps 627 mmHg 91%
05:00 +14°C° 0 mm 1 mps 627 mmHg 88%
06:00 +14°C° 0 mm 0 mps 628 mmHg 85%
07:00 +18°C° 0 mm 1 mps 629 mmHg 77%
08:00 +20°C° 0 mm 1 mps 630 mmHg 69%
09:00 +20°C° 0 mm 2 mps 630 mmHg 62%
10:00 +21°C° 0.3 mm 2 mps 631 mmHg 61%
11:00 +23°C° 0.3 mm 2 mps 631 mmHg 60%
12:00 +23°C° 0.3 mm 2 mps 631 mmHg 59%
13:00 +23°C° 1.7 mm 2 mps 630 mmHg 62%
14:00 +23°C° 1.7 mm 1 mps 630 mmHg 65%
15:00 +22°C° 1.7 mm 1 mps 630 mmHg 67%
16:00 +22°C° 1 mm 1 mps 629 mmHg 71%
17:00 +21°C° 1 mm 1 mps 629 mmHg 75%
18:00 +20°C° 1 mm 1 mps 628 mmHg 78%
19:00 +19°C° 1.4 mm 1 mps 628 mmHg 82%
20:00 +16°C° 1.4 mm 1 mps 628 mmHg 87%
21:00 +15°C° 1.4 mm 1 mps 628 mmHg 91%
22:00 +15°C° 0.4 mm 1 mps 628 mmHg 88%
23:00 +14°C° 0.4 mm 1 mps 628 mmHg 86%

13 July, Monday

Time Temperature Precipitation Wind Pressure Humidity
00:00 +14°C° 0.4 mm 1 mps 628 mmHg 84%
01:00 +14°C° 0.1 mm 1 mps 627 mmHg 81%
02:00 +13°C° 0.1 mm 1 mps 627 mmHg 79%
03:00 +13°C° 0.1 mm 1 mps 627 mmHg 77%
04:00 +14°C° 0 mm 1 mps 627 mmHg 77%
05:00 +14°C° 0 mm 1 mps 628 mmHg 78%
06:00 +15°C° 0 mm 1 mps 628 mmHg 78%
07:00 +18°C° 0.2 mm 1 mps 629 mmHg 73%
08:00 +19°C° 0.2 mm 1 mps 630 mmHg 68%
09:00 +21°C° 0.2 mm 1 mps 630 mmHg 62%
10:00 +21°C° 1.3 mm 1 mps 630 mmHg 64%
11:00 +21°C° 1.3 mm 1 mps 630 mmHg 67%
12:00 +21°C° 1.3 mm 1 mps 630 mmHg 69%
13:00 +21°C° 2 mm 1 mps 630 mmHg 70%
14:00 +21°C° 2 mm 1 mps 629 mmHg 72%
15:00 +21°C° 2 mm 1 mps 629 mmHg 73%
16:00 +20°C° 1.6 mm 1 mps 628 mmHg 78%
17:00 +19°C° 1.6 mm 1 mps 628 mmHg 82%
18:00 +18°C° 1.6 mm 1 mps 627 mmHg 87%
19:00 +16°C° 0.2 mm 1 mps 627 mmHg 89%
20:00 +14°C° 0.2 mm 1 mps 627 mmHg 91%
21:00 +13°C° 0.2 mm 1 mps 627 mmHg 94%
22:00 +13°C° 0 mm 1 mps 627 mmHg 94%
23:00 +13°C° 0 mm 1 mps 627 mmHg 94%

14 July, Tuesday

Time Temperature Precipitation Wind Pressure Humidity
00:00 +12°C° 0 mm 1 mps 627 mmHg 94%
01:00 +12°C° 0 mm 1 mps 626 mmHg 93%
02:00 +12°C° 0 mm 1 mps 626 mmHg 93%
03:00 +12°C° 0 mm 1 mps 626 mmHg 92%
04:00 +12°C° 0 mm 1 mps 626 mmHg 92%
05:00 +13°C° 0 mm 1 mps 627 mmHg 91%
06:00 +13°C° 0 mm 0 mps 627 mmHg 90%
07:00 +14°C° 0.1 mm 1 mps 628 mmHg 88%
08:00 +15°C° 0.1 mm 1 mps 628 mmHg 85%
09:00 +16°C° 0.1 mm 1 mps 628 mmHg 82%
10:00 +18°C° 0.3 mm 1 mps 628 mmHg 78%
11:00 +19°C° 0.3 mm 1 mps 629 mmHg 74%
12:00 +20°C° 0.3 mm 1 mps 629 mmHg 70%
13:00 +19°C° 0.6 mm 1 mps 628 mmHg 72%
14:00 +19°C° 0.6 mm 1 mps 628 mmHg 74%
15:00 +19°C° 0.6 mm 1 mps 628 mmHg 76%
16:00 +18°C° 0.5 mm 1 mps 627 mmHg 80%
17:00 +16°C° 0.5 mm 1 mps 627 mmHg 83%
18:00 +16°C° 0.5 mm 1 mps 627 mmHg 86%
19:00 +15°C° 0.1 mm 1 mps 627 mmHg 88%
20:00 +14°C° 0.1 mm 1 mps 627 mmHg 90%
21:00 +13°C° 0.1 mm 1 mps 627 mmHg 92%
22:00 +13°C° 0 mm 1 mps 627 mmHg 92%
23:00 +12°C° 0 mm 1 mps 627 mmHg 93%

15 July, Wednesday

Time Temperature Precipitation Wind Pressure Humidity
00:00 +12°C° 0 mm 1 mps 626 mmHg 93%
01:00 +12°C° 0 mm 1 mps 626 mmHg 93%
02:00 +11°C° 0 mm 1 mps 626 mmHg 93%
03:00 +11°C° 0 mm 1 mps 626 mmHg 94%
04:00 +12°C° 0 mm 1 mps 626 mmHg 92%
05:00 +12°C° 0 mm 1 mps 627 mmHg 91%
06:00 +13°C° 0 mm 1 mps 627 mmHg 89%
07:00 +15°C° 0 mm 1 mps 628 mmHg 83%
08:00 +16°C° 0 mm 1 mps 629 mmHg 76%
09:00 +19°C° 0 mm 1 mps 629 mmHg 70%
10:00 +19°C° 0.1 mm 1 mps 629 mmHg 68%
11:00 +20°C° 0.1 mm 1 mps 629 mmHg 66%
12:00 +20°C° 0.1 mm 1 mps 630 mmHg 64%
13:00 +20°C° 0.2 mm 1 mps 629 mmHg 67%
14:00 +20°C° 0.2 mm 1 mps 629 mmHg 69%
15:00 +19°C° 0.2 mm 1 mps 628 mmHg 71%
16:00 +19°C° 0.1 mm 1 mps 628 mmHg 74%
17:00 +18°C° 0.1 mm 1 mps 628 mmHg 77%
18:00 +18°C° 0.1 mm 1 mps 628 mmHg 80%
19:00 +15°C° 0 mm 1 mps 628 mmHg 83%
20:00 +14°C° 0 mm 1 mps 627 mmHg 87%
21:00 +13°C° 0 mm 1 mps 627 mmHg 90%
22:00 +12°C° 0 mm 1 mps 627 mmHg 90%
23:00 +12°C° 0 mm 1 mps 627 mmHg 90%
Show more